GFSSGP_prec_cloud_057.txt.gz
Cloud_Cover
0 0 0 0 0 0 0 0 0 0 0 0 0 0 0 0 0 0 0 0 0 0 0 5 3 15 22 14 100 53 100 100 98 96 100 100 100 100 94 56 94 100 99 85 11 10 13 99 11
0 0 0 0 0 0 0 0 0 0 0 0 0 0 0 0 0 0 0 23 0 0 0 0 0 4 0 3 1 10 2 20 100 100 100 94 100 59 100 18 6 96 100 100 100 99 59 15 7
0 0 0 0 0 0 0 0 0 0 0 0 0 0 0 0 0 0 0 2 1 12 0 0 0 0 0 1 61 100 82 39 43 100 90 92 100 100 73 86 15 60 86 100 100 100 100 100 100
0 0 0 0 0 0 0 0 0 0 0 0 0 0 0 0 0 0 0 0 5 15 1 0 0 0 0 1 5 60 100 20 2 72 98 60 70 89 97 100 100 100 17 32 93 100 100 100 100
0 0 0 0 0 0 0 0 0 0 0 0 0 0 0 0 0 0 0 0 18 16 3 0 0 0 0 0 0 0 0 6 3 0 7 8 8 61 57 82 71 58 81 0 4 5 94 100 64
0 0 0 0 0 0 0 0 0 0 0 0 0 0 0 0 0 0 0 0 0 2 3 31 19 0 0 0 0 0 0 0 0 2 15 31 13 2 0 0 0 0 0 0 0 0 0 0 1
0 0 0 0 0 0 0 0 0 0 0 0 0 0 0 0 0 0 0 0 0 0 7 4 16 0 0 0 0 0 0 0 0 0 0 0 0 0 0 0 0 0 0 0 0 0 0 0 0
0 0 0 0 0 0 0 0 0 0 0 0 0 0 0 0 0 0 0 0 0 0 0 31 56 7 0 36 1 0 0 0 0 0 0 0 0 16 0 4 0 0 0 0 0 0 0 0 0
0 0 0 0 0 0 0 0 0 0 0 0 0 0 0 0 0 0 0 0 2 3 89 20 100 65 92 100 96 20 11 100 61 0 0 70 35 94 100 86 0 0 0 1 0 0 0 0 0
1 0 0 0 0 0 0 0 0 0 0 0 0 0 0 0 0 0 0 0 4 12 93 33 62 100 100 95 16 31 49 94 100 18 60 18 78 95 100 80 0 0 0 0 0 0 0 0 0
5 5 0 3 0 0 0 0 0 0 0 0 0 0 0 0 0 0 0 0 0 6 59 45 14 26 99 100 96 28 26 92 19 31 45 88 100 79 100 100 28 2 0 0 0 0 0 0 0
0 2 0 0 0 0 0 0 0 0 0 0 0 0 0 0 0 0 0 0 0 0 0 0 15 16 22 16 70 100 41 69 100 94 59 60 99 96 91 98 100 11 15 8 7 5 0 0 0
5 14 5 0 0 0 0 0 0 0 0 0 0 0 0 0 0 0 0 0 0 0 0 0 0 0 0 0 58 100 100 100 100 100 90 96 99 65 100 100 100 100 94 54 12 21 4 4 10
14 88 21 0 0 0 0 0 0 0 0 0 0 0 0 0 0 0 0 0 0 0 0 0 3 0 0 3 92 100 100 100 100 100 100 100 100 96 100 100 100 99 100 100 100 100 87 65 100
100 100 77 5 3 0 0 0 0 0 0 0 0 0 0 0 0 0 0 0 0 0 0 0 28 38 46 35 96 84 100 100 100 100 100 100 100 100 100 100 100 100 100 100 100 100 100 100 63
78 71 36 5 5 0 2 4 0 0 0 0 0 0 0 0 0 0 0 0 0 0 0 0 55 100 100 90 97 100 100 100 100 100 100 100 100 100 100 99 100 100 100 100 100 100 99 50 21
5 5 73 37 5 0 0 5 0 0 0 4 3 0 0 0 0 0 0 0 0 0 0 0 37 100 100 100 100 90 100 80 100 100 100 100 100 100 100 100 100 100 100 100 63 5 5 0 0
5 13 29 99 65 0 0 5 5 5 3 3 0 0 0 0 0 0 0 0 0 0 0 0 48 100 97 100 100 98 100 100 100 100 100 100 100 100 100 100 100 95 18 5 1 5 5 5 5
45 5 8 99 6 0 0 4 5 5 5 5 5 0 0 0 0 0 0 0 0 1 19 5 98 96 100 100 100 100 100 100 100 100 100 100 100 37 35 40 40 5 5 5 5 5 5 5 6
8 6 56 6 2 5 3 4 5 5 5 5 5 5 0 0 0 0 0 0 0 4 16 11 81 100 98 92 100 100 100 100 100 100 100 100 50 6 5 5 5 5 5 38 50 90 80 28 5
100 12 69 5 5 2 0 0 1 5 16 9 5 4 0 0 0 0 0 0 0 9 31 23 19 100 100 100 45 60 100 100 100 100 100 100 63 5 19 5 5 5 5 7 43 51 58 12 21
100 60 24 60 3 0 0 0 5 18 19 9 5 0 0 0 0 0 0 0 0 0 8 4 14 21 99 78 39 99 99 94 100 100 100 100 17 5 5 5 5 5 5 5 5 6 21 61 83
44 100 67 5 0 0 0 0 23 100 98 47 2 0 0 0 0 0 0 0 0 2 23 11 21 82 32 100 100 100 100 100 100 100 100 100 25 14 5 5 5 5 26 73 98 99 53 84 100
95 8 50 10 0 0 0 0 95 82 78 97 4 0 0 0 0 0 0 0 0 1 32 19 73 100 49 44 84 100 100 100 100 100 100 78 64 25 22 41 32 8 48 72 99 100 100 100 100
100 100 100 7 0 0 0 0 83 100 34 5 5 1 0 0 0 0 0 0 5 12 46 56 100 100 84 61 98 100 100 100 100 100 100 74 80 60 94 27 5 7 94 82 99 83 100 100 85
100 100 24 7 4 0 0 0 0 6 95 0 5 5 5 0 0 0 0 0 0 0 16 53 100 100 41 88 100 100 100 100 100 100 96 92 98 72 5 5 53 96 98 93 100 43 21 8 5
86 26 82 58 24 10 0 0 0 4 5 5 0 0 4 5 1 0 0 0 0 0 0 48 100 93 15 100 100 100 100 100 100 100 97 96 10 19 97 100 100 100 100 100 100 78 92 68 5
60 78 64 76 7 4 0 0 4 10 5 5 2 0 0 0 0 0 0 3 1 0 0 54 97 16 14 100 100 100 100 100 100 89 30 54 100 100 100 100 100 100 100 100 87 61 82 53 28
100 63 88 8 2 2 4 7 5 6 5 5 5 5 1 0 0 0 0 1 2 0 0 16 62 0 49 100 100 100 100 100 94 34 100 100 90 99 100 100 100 100 100 100 76 9 10 91 22
5 5 5 5 5 26 5 23 29 1 1 5 0 0 0 0 3 5 5 5 2 4 0 0 0 2 57 100 100 100 100 90 83 100 100 100 100 100 100 100 100 100 100 99 100 100 100 100 100

GFSSGP_prec_cloud_060.txt.gz
Cloud_Cover
0 0 0 0 0 0 0 0 0 0 0 0 0 0 0 0 0 0 0 0 0 0 31 23 100 100 100 100 100 100 100 100 100 99 94 100 100 99 99 57 10 82 98 15 22 98 96 100 100
0 0 0 0 0 0 0 0 0 0 0 0 0 0 0 0 0 0 0 2 0 2 2 5 47 58 99 100 100 100 100 100 100 100 96 80 100 100 100 100 90 45 26 10 96 98 100 100 59
0 0 0 0 0 0 0 0 0 0 0 0 0 0 0 0 0 0 0 39 9 16 0 0 0 8 61 9 88 91 86 100 99 100 100 100 100 100 100 89 81 51 6 6 5 70 24 29 97
0 0 0 0 0 0 0 0 0 0 0 0 0 0 0 0 0 0 6 15 7 29 1 0 0 0 0 0 0 4 0 46 4 15 100 100 96 100 100 100 100 99 100 6 5 10 13 100 100
0 0 0 0 0 0 0 0 0 0 0 0 0 0 0 0 0 0 5 4 7 37 7 0 0 0 0 0 0 1 5 6 50 19 7 0 22 15 48 90 5 4 5 47 100 100 77 10 5
0 0 0 0 0 0 0 0 0 0 0 0 0 0 0 0 0 0 13 2 0 14 17 1 13 0 0 0 0 0 0 1 2 21 7 0 0 2 5 31 4 2 30 8 10 0 0 0 0
0 0 0 0 0 0 0 0 0 0 0 0 0 0 0 0 0 0 0 0 4 9 19 7 3 0 0 0 0 1 0 0 0 0 0 0 0 0 0 0 0 0 0 0 0 0 0 0 0
0 0 0 0 0 0 0 0 0 0 0 0 0 0 0 0 0 0 0 0 0 1 10 28 7 2 1 0 0 0 0 0 0 0 0 0 0 0 0 0 0 0 0 0 0 0 0 0 0
0 0 0 0 0 0 0 0 0 0 0 0 0 0 0 0 0 0 5 7 3 3 8 16 29 11 43 100 90 4 0 18 8 0 0 71 41 61 0 13 0 0 0 0 0 0 0 0 0
5 5 5 0 0 0 0 0 0 0 0 0 0 0 0 0 0 0 0 6 7 3 80 17 41 100 100 100 100 77 80 98 100 63 9 14 79 98 41 56 5 0 0 0 0 0 0 0 0
5 5 0 0 0 0 0 0 0 0 0 0 0 0 0 0 0 0 0 0 0 0 0 90 20 53 100 100 95 38 42 28 33 78 46 100 100 83 91 100 100 4 0 0 0 0 0 0 0
5 8 5 5 2 0 0 0 0 0 0 0 0 0 0 0 0 0 0 0 0 0 12 15 87 15 16 100 100 66 45 69 38 44 47 96 100 100 100 67 100 100 18 2 0 0 0 0 0
0 5 5 5 5 1 0 0 0 0 0 0 0 0 0 0 0 0 0 0 0 0 0 22 47 35 0 2 8 76 100 32 39 92 76 64 97 66 68 52 100 100 76 36 13 38 28 30 72
4 5 19 7 61 16 0 0 0 0 0 0 0 0 0 0 0 0 0 0 0 0 0 0 0 1 1 46 68 100 58 100 100 100 100 77 87 92 67 100 100 100 100 100 100 100 100 100 100
5 5 21 81 65 75 0 0 0 0 0 0 0 0 0 0 0 0 0 0 0 0 0 0 0 0 29 8 100 100 78 100 100 100 100 100 100 100 63 100 100 100 100 100 100 100 100 100 100
5 5 5 5 28 82 5 5 0 0 0 0 0 0 0 0 0 0 0 0 0 0 0 0 8 0 28 100 81 100 100 100 100 100 100 100 100 100 100 100 100 100 100 100 100 100 100 100 28
5 5 5 5 5 5 5 30 0 0 0 4 1 0 0 0 0 0 0 0 0 0 0 0 12 4 84 100 48 100 100 100 100 100 100 100 100 94 90 100 100 100 100 100 100 100 83 8 4
4 5 8 5 3 0 0 9 5 0 3 5 5 4 2 0 0 0 0 0 0 0 0 0 22 7 86 85 80 100 100 100 100 100 100 100 100 96 99 99 100 100 100 100 100 8 14 15 5
5 5 19 56 5 0 0 4 5 0 5 5 5 5 5 5 0 0 0 0 0 0 12 20 41 32 31 100 100 100 100 100 100 100 100 100 96 100 100 100 100 100 82 15 5 5 5 5 43
6 11 21 16 5 0 0 4 5 8 5 31 13 4 1 3 0 0 0 0 0 0 10 34 15 10 8 100 100 97 100 100 100 100 100 100 100 100 100 100 98 41 5 5 5 5 4 5 5
83 38 46 5 5 2 0 0 5 93 81 100 99 4 0 0 0 0 0 0 0 0 20 43 37 22 0 74 100 62 100 100 100 100 100 100 97 100 45 26 8 7 17 9 6 5 5 4 5
62 66 25 66 5 5 0 0 32 89 100 100 100 5 0 0 0 0 0 0 0 0 0 27 31 63 28 51 100 17 24 53 37 98 100 100 100 100 28 5 24 80 64 5 5 5 5 5 5
99 100 99 10 5 4 0 0 20 97 100 100 100 28 0 0 0 0 0 0 0 0 8 40 28 89 99 97 93 34 100 11 18 100 100 100 100 100 43 83 75 43 5 5 5 5 5 5 5
100 100 100 100 32 0 0 0 70 63 92 100 100 22 0 0 0 0 0 0 0 1 21 78 51 47 100 100 100 100 83 5 43 100 100 100 100 100 85 34 31 23 68 67 59 23 5 5 6
100 100 100 69 5 1 0 0 22 100 89 15 19 1 0 0 0 0 0 0 0 27 61 97 80 98 66 91 100 100 69 98 100 100 100 100 100 100 76 43 59 99 100 100 81 6 48 100 75
100 100 98 11 21 5 3 0 0 1 48 98 0 5 58 0 0 0 0 0 0 0 56 98 99 100 41 100 85 71 100 100 100 100 100 100 100 100 49 96 100 100 100 100 80 100 97 85 100
100 99 100 100 6 2 0 0 0 3 16 94 10 1 0 0 0 0 0 0 0 0 45 88 91 97 21 100 98 29 37 89 100 100 100 100 100 100 100 100 100 100 96 100 100 100 100 100 100
21 15 25 53 14 4 0 0 0 5 29 66 93 41 6 0 0 0 0 0 0 0 8 41 29 20 10 100 100 35 1 100 100 100 100 100 100 97 94 100 96 100 100 100 100 100 100 100 100
100 87 38 29 3 0 2 0 5 7 12 96 100 93 18 5 1 0 0 0 0 0 0 1 5 16 30 100 100 35 65 100 100 100 100 100 100 100 100 98 100 100 100 100 100 100 100 100 100
100 89 31 6 38 12 5 1 72 18 0 14 100 100 100 9 0 0 0 0 0 0 0 1 0 2 48 100 100 85 100 100 100 100 100 100 100 95 100 100 100 100 100 100 100 100 100 100 100

GFSSGP_prec_cloud_063.txt.gz
Cloud_Cover
0 0 0 0 0 0 0 0 0 0 0 0 0 0 0 0 0 0 0 0 0 0 20 5 21 58 61 92 100 100 92 100 100 97 37 94 98 77 90 96 69 100 18 58 100 100 100 100 47
0 0 0 0 0 0 0 0 0 0 0 0 0 0 0 0 0 0 0 0 0 0 77 16 100 100 100 100 95 100 100 99 74 100 100 62 17 13 93 100 97 28 23 5 50 100 100 100 97
0 0 0 0 0 0 0 0 0 0 0 0 0 0 0 0 0 0 0 0 0 0 1 27 13 94 100 100 100 83 100 100 100 100 100 100 76 100 100 100 100 100 94 5 5 91 77 5 5
0 0 0 0 0 0 0 0 0 0 0 0 0 0 0 0 0 0 42 7 1 19 0 1 21 5 30 100 100 100 100 100 100 100 100 100 100 100 100 100 100 98 73 95 26 89 38 7 17
0 0 0 0 0 0 0 0 0 0 0 0 0 0 0 0 0 0 80 54 6 34 0 0 0 3 1 7 26 82 90 86 81 73 5 4 98 92 100 100 100 100 100 100 100 87 2 5 48
0 0 0 0 0 0 0 0 0 0 0 0 0 0 0 0 0 0 52 30 14 6 0 0 5 0 0 0 0 0 0 0 5 7 2 5 1 0 35 81 89 23 86 99 14 90 1 1 4
0 0 0 0 0 0 0 0 0 0 0 0 0 0 0 0 0 12 58 23 25 43 5 0 0 0 6 0 0 0 0 0 0 0 0 0 0 0 0 0 0 0 0 0 0 0 0 0 0
0 0 0 0 0 0 0 0 0 0 0 0 0 0 0 0 0 14 47 17 30 48 37 20 2 0 0 0 4 0 0 0 0 0 0 0 0 0 0 0 0 0 0 0 0 0 0 0 0
0 0 0 0 0 0 0 0 0 0 0 0 0 0 0 0 0 18 47 36 39 54 32 33 15 1 15 48 24 17 5 0 1 0 0 68 0 0 0 0 0 0 0 0 0 0 0 0 0
0 0 0 0 0 0 0 0 0 0 0 0 0 0 0 0 0 10 34 28 33 41 51 33 28 19 46 100 100 27 85 99 77 84 32 32 80 30 0 26 4 0 0 0 0 0 0 0 0
0 0 0 0 0 0 0 0 0 0 0 0 0 0 0 0 0 0 0 0 4 2 29 41 37 77 100 100 100 99 10 61 31 20 13 100 100 96 16 49 100 69 0 0 0 0 0 0 0
0 0 0 0 0 2 5 0 0 0 0 0 0 0 0 0 0 0 0 0 0 7 9 0 95 100 16 100 100 84 79 40 61 51 63 79 100 100 100 100 100 100 89 3 0 0 0 0 0
0 0 0 0 0 0 5 4 0 0 0 0 0 0 0 0 0 0 0 0 0 0 0 0 0 78 68 2 98 100 38 16 16 69 98 36 76 86 100 99 71 99 100 64 3 32 29 57 90
0 0 0 0 5 11 14 5 0 0 0 0 0 0 0 0 0 0 0 0 0 0 0 1 19 6 83 48 0 41 86 40 19 49 96 93 63 74 100 97 49 100 99 100 99 100 100 100 100
0 0 0 0 0 6 5 5 0 0 0 0 0 0 0 0 0 0 0 0 0 0 0 0 0 1 10 11 9 84 99 90 75 100 100 76 97 88 100 94 100 100 100 99 100 100 100 100 100
0 0 0 0 0 0 3 1 4 0 0 0 0 0 0 0 0 0 0 0 0 0 0 0 0 0 0 0 6 38 99 100 87 83 100 100 100 100 100 100 78 100 61 100 100 100 100 100 98
0 0 3 5 3 0 0 0 0 0 4 5 1 0 0 0 0 0 0 0 0 0 0 0 0 0 1 2 12 75 100 100 100 100 100 100 96 100 100 100 100 100 100 61 100 100 100 100 40
0 0 5 1 0 0 0 0 0 0 1 5 5 4 0 0 0 0 0 0 0 0 0 0 0 0 16 1 84 100 89 100 100 100 100 100 100 100 100 100 98 99 98 100 100 100 100 76 5
0 0 0 0 0 0 0 1 0 0 1 3 5 0 0 0 0 0 0 0 0 0 0 0 15 48 27 31 100 100 100 100 100 100 100 100 100 100 100 64 91 100 26 100 100 100 64 5 5
5 4 5 5 0 0 0 4 2 0 3 5 3 6 5 0 0 0 0 0 0 0 0 0 0 48 25 1 72 73 93 100 100 100 93 100 100 100 100 100 100 100 100 100 100 16 5 34 5
5 5 5 0 0 0 0 5 38 8 0 3 41 21 4 0 0 0 0 0 0 0 0 0 0 30 28 2 1 32 100 100 100 100 100 100 100 100 100 100 100 100 100 80 18 12 5 5 7
5 5 0 2 2 0 0 10 100 100 90 85 54 5 4 0 0 0 0 0 0 0 0 0 4 16 15 0 1 16 100 100 93 100 100 100 100 100 100 100 100 100 43 93 93 8 8 5 5
35 10 5 5 5 0 0 0 95 100 100 100 86 17 4 0 0 0 0 0 0 0 0 0 1 17 11 1 0 6 100 100 100 100 100 100 100 100 100 100 97 73 76 29 25 9 5 6 12
86 98 70 5 5 0 2 5 95 33 45 99 100 100 64 0 0 0 0 0 0 0 0 0 19 14 6 3 6 0 96 100 96 100 95 38 100 100 100 100 95 9 5 57 74 55 41 62 71
100 100 100 48 5 2 0 0 97 100 18 25 100 100 93 1 0 0 0 0 0 0 0 17 49 75 22 0 23 42 100 97 16 45 28 20 99 100 100 100 93 5 45 97 82 69 72 67 83
100 100 97 67 67 32 5 1 97 100 100 3 6 5 30 29 0 0 0 0 0 0 0 3 84 71 50 47 38 28 42 95 55 100 0 36 100 100 100 100 39 65 100 100 99 99 99 100 100
100 100 99 35 6 5 0 4 5 99 100 100 6 5 3 5 15 0 0 0 0 0 0 2 50 99 26 100 100 100 100 100 100 71 51 100 100 100 100 100 40 74 99 100 100 100 100 95 69
100 100 100 100 98 30 0 0 0 12 100 100 100 26 5 25 0 1 0 0 0 0 0 2 50 96 39 56 100 64 99 100 100 97 100 100 100 100 100 100 94 99 96 87 100 100 100 100 100
100 100 100 100 88 20 1 0 13 99 100 100 100 100 5 62 0 0 0 0 0 0 7 63 100 94 24 39 57 38 98 99 49 63 36 100 100 100 100 100 100 100 100 100 100 100 100 100 100
7 6 26 5 5 43 5 5 100 100 100 100 100 100 92 5 4 0 0 3 5 0 27 59 79 42 6 9 32 6 97 100 89 58 90 100 100 100 100 100 100 100 100 100 100 100 100 100 100

GFSSGP_prec_cloud_069.txt.gz
Cloud_Cover
0 0 6 0 0 0 0 0 0 0 0 0 0 0 0 0 0 0 32 100 100 94 100 100 100 8 92 100 100 100 96 100 100 84 90 99 99 72 27 45 31 72 58 73 77 100 76 7 23
0 12 100 1 0 0 0 0 0 0 0 0 0 0 0 0 0 0 15 4 100 76 95 100 100 47 100 100 99 99 100 100 100 100 100 84 88 83 12 39 79 21 67 99 100 100 39 49 7
46 83 0 0 0 0 0 0 0 0 0 0 0 0 0 0 0 0 5 3 40 96 63 93 100 75 55 86 38 52 77 78 28 77 100 100 100 84 94 100 88 100 100 100 100 100 85 56 96
28 1 4 0 0 0 0 0 0 0 0 0 0 0 0 0 0 0 6 7 68 58 100 40 48 33 5 5 5 5 5 60 100 100 100 100 100 100 100 67 96 100 100 88 79 99 100 100 100
1 7 2 0 0 0 0 0 0 0 0 0 0 0 0 0 0 0 8 12 56 100 100 0 0 0 0 0 0 9 100 91 100 100 100 100 100 100 24 30 96 100 100 100 100 100 68 100 63
5 2 1 0 0 0 0 0 0 0 0 0 0 0 0 0 0 0 2 3 26 96 92 0 19 0 0 0 3 11 30 51 100 95 35 71 99 98 79 30 47 73 100 36 63 100 100 100 100
30 5 0 0 0 0 0 0 0 0 0 0 0 0 0 0 0 0 0 0 8 100 67 25 0 4 44 0 4 5 5 5 5 4 14 6 6 1 8 0 0 0 0 0 0 0 32 17 20
5 0 0 0 0 0 0 0 0 0 0 0 0 0 0 0 0 0 0 0 0 100 100 98 54 14 7 0 7 0 0 0 0 0 0 0 0 0 0 0 0 0 0 0 0 0 0 0 0
5 2 0 0 0 0 0 0 0 0 0 0 0 0 0 0 0 0 0 16 86 100 100 100 100 100 94 66 32 53 26 1 6 4 0 0 0 0 0 0 0 0 0 0 0 0 0 0 0
5 5 0 0 0 0 0 0 0 0 0 0 0 0 0 0 0 0 0 1 97 97 100 100 100 100 100 100 40 35 49 37 15 0 38 84 84 21 0 0 0 0 0 0 0 0 0 0 0
5 0 0 0 0 0 0 0 0 0 0 0 0 0 0 0 0 0 0 0 0 10 93 100 100 100 100 100 33 13 19 6 54 31 0 69 100 1 0 0 0 0 0 0 0 0 0 0 4
5 2 2 0 0 0 0 0 0 0 0 0 0 0 0 0 0 0 0 0 0 0 1 99 100 100 100 91 49 31 14 11 28 54 37 23 78 95 69 12 1 56 54 11 0 0 0 0 0
5 2 0 0 0 0 0 0 0 0 0 0 0 0 0 0 0 0 0 0 0 0 0 6 100 98 68 39 56 5 12 6 17 22 19 98 25 60 47 100 37 100 100 33 34 43 0 0 0
5 4 1 0 0 0 0 0 0 0 0 0 0 0 0 0 0 0 0 0 0 0 0 0 30 39 1 0 1 0 0 12 22 81 90 48 23 37 46 99 100 100 27 36 99 16 43 0 8
5 5 0 0 0 0 0 0 0 0 0 0 0 0 0 0 0 0 0 0 0 0 0 0 14 40 2 0 42 6 0 0 53 2 20 45 94 99 90 64 100 100 37 97 100 52 2 9 100
5 5 5 0 0 0 0 0 0 0 0 0 0 0 0 0 0 0 0 0 0 0 0 0 0 0 0 0 0 20 18 6 0 29 25 19 58 100 100 33 87 10 95 38 100 100 69 2 95
27 8 5 1 5 0 0 0 0 0 0 0 0 0 0 0 0 0 0 0 0 0 0 0 0 0 0 0 2 17 36 98 26 3 49 35 60 100 100 100 75 72 97 93 46 100 100 3 76
11 5 5 4 5 0 0 0 0 0 0 0 0 0 0 0 0 0 0 0 0 0 0 0 0 0 0 0 0 4 40 100 95 92 100 89 64 98 100 100 100 100 100 100 90 74 100 39 99
40 5 41 5 3 0 0 0 0 0 0 0 0 0 0 0 0 0 0 0 0 0 0 0 0 0 0 0 0 0 0 30 100 100 100 100 100 100 100 100 100 100 100 95 100 100 100 96 100
18 35 17 6 3 0 0 0 0 0 0 0 0 0 0 0 0 0 0 0 0 0 0 0 0 0 0 0 0 0 0 0 0 83 100 100 100 100 100 100 100 100 100 100 100 67 93 91 100
78 61 55 50 5 2 0 0 0 0 0 0 0 0 0 0 0 0 4 0 0 0 0 0 0 0 0 0 0 0 0 0 5 56 100 100 100 100 100 100 100 90 100 100 100 96 100 93 99
100 77 15 5 5 4 0 0 0 0 0 0 0 0 5 0 0 0 0 0 0 0 0 0 0 0 0 0 0 0 0 0 0 0 95 100 100 100 100 100 100 100 98 100 100 96 72 100 100
5 5 5 5 2 0 0 0 5 5 0 3 0 2 2 0 0 0 0 0 0 0 0 0 0 0 0 0 0 0 0 0 0 0 44 100 100 100 100 100 100 100 100 100 100 100 100 100 100
5 5 5 5 3 0 1 0 36 57 81 36 6 19 5 0 1 0 0 0 0 0 0 0 0 0 0 0 0 0 0 0 0 0 67 97 98 100 100 100 100 100 100 100 100 99 100 100 100
6 5 5 5 4 0 0 0 52 10 89 100 100 100 32 6 5 2 0 4 5 1 0 0 0 0 0 0 0 0 0 0 0 0 41 90 99 100 100 100 100 100 100 100 100 100 100 100 100
96 15 4 0 5 2 0 1 93 10 56 100 100 100 100 100 82 50 24 5 24 5 1 0 0 0 0 0 0 0 5 5 5 0 1 43 46 100 100 100 100 100 100 100 100 100 100 100 100
100 100 100 37 5 5 0 1 5 93 100 49 94 100 100 100 100 100 100 100 5 5 1 0 0 0 0 0 0 1 0 0 0 0 0 14 0 37 88 92 100 100 100 100 100 100 100 100 100
100 100 100 100 97 93 5 12 5 100 53 100 53 52 90 100 100 100 100 100 78 4 0 0 0 0 0 2 0 0 0 0 0 0 22 54 0 80 54 100 100 100 100 100 100 100 100 100 98
100 100 98 100 90 83 44 24 100 100 99 100 64 51 8 15 75 96 100 83 74 6 5 0 0 0 0 5 3 4 4 5 2 1 0 27 5 43 100 100 100 100 90 100 100 100 100 100 100
5 9 99 31 3 31 25 0 99 100 100 92 9 6 40 5 5 5 3 5 0 0 0 0 0 0 0 3 5 40 98 10 5 17 6 0 10 30 100 94 100 100 100 100 100 100 100 100 100

GFSSGP_prec_cloud_072.txt.gz
Cloud_Cover
100 97 88 0 3 0 0 0 0 0 0 0 0 0 0 0 0 0 67 100 100 100 100 83 100 100 100 100 100 100 100 100 93 98 54 86 72 100 58 48 84 28 53 82 26 5 5 5 5
100 35 3 0 5 0 0 0 0 0 0 0 0 0 0 0 0 0 47 100 100 100 100 93 100 73 100 100 100 100 100 100 100 100 98 100 95 44 12 76 28 76 11 72 56 44 100 96 95
100 1 2 0 0 0 0 0 0 0 0 0 0 0 0 0 0 1 1 100 100 100 100 100 100 100 49 5 21 100 100 100 100 92 70 99 96 60 23 32 18 54 75 99 100 90 59 65 87
5 0 1 0 0 0 0 0 0 0 0 0 0 0 0 0 0 0 0 24 100 100 97 100 95 75 27 17 5 5 56 100 76 5 5 5 62 100 98 99 97 100 100 97 91 93 25 64 78
3 41 5 0 0 0 0 0 0 0 0 0 0 0 0 0 0 0 0 53 100 100 98 100 100 88 100 77 24 39 5 32 49 7 61 67 95 100 100 100 100 97 99 99 84 100 100 100 100
82 19 1 5 0 0 0 0 0 0 0 0 0 0 0 0 0 0 0 70 16 100 98 10 73 9 0 0 42 2 2 2 47 53 96 100 100 100 100 100 100 79 8 14 10 22 69 78 66
98 20 0 4 0 0 0 0 0 0 0 0 0 0 0 0 0 0 0 15 52 86 96 0 0 0 23 0 0 0 0 0 1 17 19 57 28 39 52 20 8 16 13 0 0 0 0 0 0
7 0 5 15 0 0 0 0 0 0 0 0 0 0 0 0 0 0 0 4 100 21 33 1 0 0 0 0 3 0 0 0 4 4 5 5 5 2 0 0 0 0 0 0 0 0 0 0 0
16 5 26 5 0 0 0 0 0 0 0 0 0 0 0 0 0 0 0 0 94 98 100 99 2 0 0 0 24 29 3 0 0 0 0 0 0 0 0 0 0 0 0 0 0 0 0 0 0
5 10 72 3 0 0 0 0 0 0 0 0 0 0 0 0 0 0 0 0 19 77 100 100 100 100 94 91 10 26 9 0 0 0 0 0 0 0 0 0 0 0 0 0 0 0 0 0 0
5 7 38 2 0 0 0 0 0 0 0 0 0 0 0 0 0 0 0 0 0 0 100 100 100 100 100 100 93 24 42 29 6 0 0 58 8 0 0 0 0 0 0 0 0 0 0 0 0
5 22 4 0 5 0 0 0 0 0 0 0 0 0 0 0 0 0 0 0 0 0 31 100 100 100 100 100 99 7 34 23 59 46 26 90 24 99 0 1 0 0 0 0 0 0 0 0 0
75 96 5 4 5 0 0 0 0 0 0 0 0 0 0 0 0 0 0 0 0 0 0 0 100 100 100 100 89 4 7 0 4 31 41 68 2 0 1 34 49 1 40 53 8 12 0 0 0
82 39 6 17 2 0 0 0 0 0 0 0 0 0 0 0 0 0 0 0 0 0 0 0 2 100 100 100 39 0 6 26 0 19 36 75 31 0 0 0 12 57 83 25 38 81 22 0 0
78 6 5 5 2 0 0 0 0 0 0 0 0 0 0 0 0 0 0 0 0 0 0 0 0 2 100 96 0 11 0 31 0 6 89 78 36 5 0 0 0 99 100 91 99 86 100 70 0
97 36 44 11 3 0 0 0 0 0 0 0 0 0 0 0 0 0 0 0 0 0 0 0 0 0 19 9 0 2 0 0 5 0 17 44 100 71 47 6 0 1 100 71 60 67 100 100 95
100 29 10 8 5 0 0 0 0 0 0 0 0 0 0 0 0 0 0 0 0 0 0 0 0 0 0 12 0 0 0 0 0 0 0 7 64 100 100 32 29 22 100 57 86 82 69 100 100
94 14 13 35 5 5 1 1 0 0 0 0 0 0 0 0 0 0 0 0 0 0 0 0 0 0 0 4 1 0 0 0 0 0 14 6 48 99 100 100 63 43 96 100 93 76 100 100 100
73 100 82 6 31 5 3 4 0 0 0 0 0 0 0 0 0 0 0 0 0 0 0 0 0 0 0 0 0 0 0 0 0 70 60 79 98 100 100 100 100 92 30 95 100 98 100 100 100
100 62 97 14 50 5 4 5 5 0 0 0 0 0 0 0 0 0 0 0 0 0 0 0 0 0 0 0 0 0 0 0 0 2 93 82 100 100 100 100 100 100 87 100 100 100 100 100 100
96 100 99 75 5 85 7 5 5 3 3 0 0 0 0 0 0 0 0 0 4 0 0 0 0 0 0 0 0 0 0 0 0 0 2 93 100 100 100 100 100 100 100 67 100 100 100 100 100
100 89 82 13 5 5 5 87 45 33 5 0 0 0 0 0 0 0 0 0 0 0 0 0 0 0 0 0 0 0 0 0 0 0 0 7 89 100 100 100 100 100 100 99 100 92 100 99 100
92 88 31 76 8 5 11 18 100 49 5 0 0 0 0 0 0 0 0 0 0 0 0 0 0 0 0 0 0 0 0 0 0 0 0 8 65 100 100 100 100 100 100 100 100 97 100 100 100
100 81 30 17 5 5 5 5 98 84 5 0 0 0 0 0 0 0 0 0 0 0 0 0 0 0 0 0 0 0 0 0 0 0 0 44 88 100 100 100 100 100 100 100 98 80 100 100 100
100 99 34 5 5 5 3 2 96 5 4 5 5 5 1 0 0 0 0 0 0 0 0 0 0 0 0 0 0 0 0 0 0 0 0 35 100 100 100 100 100 100 100 100 89 100 100 100 100
100 56 5 5 4 5 0 4 99 7 5 97 95 10 19 5 5 4 0 0 0 0 0 0 0 0 0 0 0 4 0 0 1 4 5 0 32 96 100 100 100 100 100 100 100 100 100 100 100
7 10 92 5 5 0 0 3 9 98 25 49 94 92 100 100 99 89 70 45 10 5 2 0 0 0 0 0 0 3 75 19 5 5 4 5 0 22 87 98 100 100 100 100 100 100 100 100 100
100 100 100 90 88 49 5 5 52 100 100 79 51 82 5 74 100 100 100 100 100 61 10 5 0 0 0 0 0 2 5 8 47 33 5 5 4 1 22 47 87 100 100 100 100 100 100 100 100
100 100 55 100 100 100 90 59 100 100 100 100 100 100 77 5 6 94 100 100 95 93 87 24 15 5 0 0 0 0 0 0 1 5 5 5 4 2 1 48 100 100 100 100 100 100 100 100 100
7 67 100 86 5 96 45 0 99 100 100 100 100 95 96 100 5 4 10 46 100 35 5 5 5 4 5 0 1 4 5 5 2 0 5 5 7 22 5 21 22 48 100 100 100 100 100 100 100

GFSSGP_prec_cloud_075.txt.gz
Cloud_Cover
5 78 66 44 96 0 0 0 0 0 0 0 0 0 0 0 0 0 4 48 100 99 82 98 99 100 100 100 100 100 97 100 100 100 100 100 100 96 76 64 59 6 48 37 26 86 68 56 98
74 68 10 86 48 0 0 0 0 0 0 0 0 0 0 0 0 0 53 99 100 100 89 10 100 100 100 100 100 100 74 97 100 100 96 98 91 27 34 60 92 30 5 50 94 90 43 28 18
47 100 20 51 21 0 0 0 0 0 0 0 0 0 0 0 0 0 12 93 100 100 26 54 84 100 89 100 100 100 100 100 100 86 93 100 98 100 96 22 5 5 4 11 5 10 12 25 45
5 3 5 5 0 0 0 0 0 0 0 0 0 0 0 0 0 0 0 97 100 100 100 99 5 76 100 100 100 100 100 100 100 100 100 100 99 40 100 56 34 46 90 98 46 100 34 20 33
82 11 100 68 14 0 0 0 0 0 0 0 0 0 0 0 0 0 0 22 24 78 87 89 100 100 97 5 4 5 10 26 3 42 100 100 98 11 25 79 100 100 88 100 100 100 100 100 100
88 3 30 2 5 0 0 0 0 0 0 0 0 0 0 0 0 0 0 15 15 36 100 93 65 100 100 77 53 22 57 5 5 5 0 2 5 5 77 85 94 100 92 53 99 100 100 100 4
0 33 43 0 0 2 4 0 0 0 0 0 0 0 0 0 0 0 42 100 35 95 38 85 99 88 29 8 71 9 0 0 0 0 0 0 0 4 48 75 75 66 89 46 3 14 5 0 0
100 100 71 25 3 10 12 0 0 0 0 0 0 0 0 0 0 0 19 92 100 27 95 24 14 5 0 0 0 0 0 0 0 0 0 0 0 1 5 5 5 5 0 0 0 3 0 0 0
96 47 2 31 6 3 2 0 0 0 0 0 0 0 0 0 0 0 0 20 89 66 2 0 4 18 11 4 21 0 0 0 0 0 0 0 0 0 0 0 0 0 0 0 0 0 0 0 0
100 97 19 4 0 0 0 0 0 0 0 0 0 0 0 0 0 0 0 0 1 26 0 0 0 0 2 14 22 9 4 0 0 0 0 0 0 0 0 0 0 0 0 0 0 0 0 0 0
100 66 76 5 0 4 0 0 0 0 0 0 0 0 0 0 0 0 0 0 0 0 0 56 90 18 19 13 21 45 62 24 0 0 0 0 0 0 0 0 0 0 0 0 0 0 0 0 0
100 89 6 5 4 0 5 0 0 0 0 0 0 0 0 0 0 0 0 0 0 0 0 0 100 100 100 100 100 68 93 50 0 0 0 0 0 0 0 0 0 0 0 0 0 0 0 0 0
100 100 28 4 5 5 7 1 0 0 0 0 0 0 0 0 0 0 0 0 0 0 0 0 18 99 100 100 100 100 100 80 3 31 6 35 8 0 0 0 0 0 0 0 0 0 0 0 0
100 100 47 15 5 7 59 0 0 0 0 0 0 0 0 0 0 0 0 0 0 0 0 0 0 2 100 100 100 86 58 64 32 41 81 19 77 20 1 0 0 0 0 0 30 1 0 34 0
67 92 5 5 5 5 5 5 18 2 0 0 0 0 0 0 0 0 0 0 0 0 0 0 0 0 20 100 100 92 11 33 45 25 86 94 50 42 28 6 0 0 0 1 100 88 97 70 99
61 85 99 15 39 74 98 1 6 5 0 0 0 0 0 0 0 0 0 0 0 0 0 0 0 0 0 2 99 86 1 0 16 30 36 97 100 100 64 93 62 14 0 18 78 93 76 63 70
55 94 32 5 5 13 45 5 27 4 0 0 0 0 0 0 0 0 0 0 0 0 0 0 0 0 0 0 40 86 0 0 0 20 45 22 61 100 100 87 100 100 33 100 100 100 83 100 50
48 5 5 27 88 83 94 6 1 2 0 0 0 0 0 0 0 0 0 0 0 0 0 0 0 0 0 0 0 11 73 12 0 0 29 28 33 98 100 100 100 100 97 55 100 100 99 100 78
5 6 53 100 100 54 12 5 44 5 5 5 0 0 0 0 0 0 0 0 0 0 0 0 0 0 0 0 0 12 5 64 48 0 1 17 45 96 100 100 100 100 100 100 92 100 100 96 98
7 38 85 56 100 100 80 100 61 26 5 5 5 0 0 0 0 0 0 0 0 0 0 0 0 0 0 0 0 0 0 0 0 0 0 1 37 54 97 100 100 100 62 99 100 100 43 97 100
98 17 100 83 100 100 56 96 88 63 66 5 5 5 0 0 0 0 0 0 0 0 0 0 0 0 0 0 0 0 4 2 0 7 0 9 16 98 92 100 100 100 100 100 100 100 100 4 78
100 100 79 100 12 55 43 93 100 96 44 32 5 5 0 0 0 0 0 0 0 0 0 0 0 0 0 0 0 0 0 1 0 0 0 23 17 97 100 100 100 100 100 100 100 100 100 100 78
100 84 69 77 35 100 45 22 100 92 93 79 33 4 2 0 0 0 0 0 0 0 0 0 0 0 0 0 0 0 0 0 0 0 3 23 70 50 100 100 100 100 100 100 100 100 100 100 92
100 100 86 63 100 88 80 35 100 100 100 89 98 70 24 5 1 0 0 0 0 0 0 0 0 0 0 0 0 0 0 0 0 0 11 31 42 52 100 100 100 100 100 100 100 100 78 66 100
100 100 100 97 100 84 97 51 100 100 100 100 100 100 31 5 0 0 0 0 0 0 0 0 0 0 0 0 0 0 0 0 5 16 4 7 48 95 71 100 100 100 100 100 100 100 100 97 100
100 100 68 99 100 100 68 74 100 100 100 100 100 100 64 6 5 0 0 0 0 0 0 0 0 0 0 0 0 0 0 0 3 6 44 79 16 4 13 90 100 100 100 100 100 100 100 100 100
30 84 100 57 12 13 12 93 100 100 100 100 100 100 100 18 8 18 6 1 0 0 0 0 0 0 0 0 0 0 0 1 5 10 10 7 29 94 100 96 100 100 100 100 100 100 100 100 80
100 100 100 100 92 49 29 93 100 100 100 100 100 99 31 6 33 6 5 10 35 26 5 5 2 1 0 0 0 0 0 5 11 37 48 25 5 5 37 100 100 100 100 100 100 100 100 100 100
100 100 100 100 81 78 63 73 100 100 100 100 89 60 11 1 0 3 5 5 58 99 100 95 69 45 5 5 4 4 0 5 5 4 2 2 5 5 28 64 100 100 100 100 100 100 100 100 100
20 68 97 42 29 91 4 21 100 100 100 100 100 93 60 5 5 1 0 3 22 79 95 100 100 93 70 15 35 89 54 5 5 5 2 0 0 1 22 28 50 95 100 100 100 100 100 100 100